FW0298 Weather Reports


time (UTC)temp
F
wind
direction
speed
knots
gust
knots
rain 1hr
in
rain 24hr
in
rain mn
in
humidity
%
barometer
mb
20260509054118 53 198 1.7 4.3 0.00 0.21 0.00 95 1007.4
20260509053652 52 171 1.7 4.3 0.00 0.21 0.00 95 1007.4
20260509053139 52 160 0.9 2.6 0.00 0.21 0.00 95 1007.5
20260509052611 52 205 0.9 3.5 0.00 0.21 0.00 95 1007.5
20260509052126 52 202 0.9 3.5 0.00 0.21 0.00 95 1007.5
20260509051614 52 183 1.7 3.5 0.00 0.21 0.00 95 1007.4
20260509051150 52 166 1.7 3.5 0.00 0.21 0.00 94 1007.4
20260509050616 53 157 1.7 3.5 0.00 0.21 0.00 94 1007.5
20260509050109 53 160 1.7 2.6 0.00 0.21 0.00 94 1007.4
20260509045647 53 156 1.7 2.6 0.00 0.21 0.00 94 1007.4
20260509045113 53 162 0.9 3.5 0.00 0.21 0.00 94 1007.4
20260509044629 53 205 0.9 4.3 0.00 0.21 0.00 95 1007.5
20260509044117 53 218 2.6 4.3 0.00 0.21 0.00 95 1007.5
20260509043612 53 212 1.7 4.3 0.00 0.21 0.00 95 1007.4
20260509043127 53 204 1.7 4.3 0.00 0.21 0.00 95 1007.4
20260509042614 53 209 2.6 4.3 0.00 0.21 0.00 95 1007.5
20260509042130 53 211 0.9 2.6 0.00 0.21 0.00 95 1007.6
20260509041618 53 209 0.0 2.6 0.00 0.21 0.00 95 1007.5
20260509041132 53 195 0.0 2.6 0.00 0.21 0.00 95 1007.6
20260509040620 52 165 1.7 2.6 0.00 0.21 0.00 95 1007.6
20260509035618 52 145 0.0 0.0 0.00 0.21 0.21 94 1007.5
20260509035110 52 131 0.0 0.0 0.00 0.21 0.21 94 1007.6
20260509034619 52 131 0.0 0.0 0.00 0.21 0.21 94 1007.6
20260509034113 53 131 0.0 0.0 0.00 0.21 0.21 94 1007.6
20260509033627 53 126 0.0 0.0 0.00 0.21 0.21 94 1007.6
20260509033115 53 157 0.0 0.0 0.00 0.21 0.21 94 1007.8
20260509032630 53 157 0.0 0.0 0.00 0.21 0.21 94 1007.8
20260509032117 53 138 0.0 0.9 0.00 0.21 0.21 94 1007.9
20260509031632 53 130 0.0 0.9 0.00 0.21 0.21 94 1007.9
20260509031149 53 211 0.0 0.9 0.00 0.21 0.21 94 1007.9
20260509030614 54 211 0.0 0.9 0.00 0.21 0.21 94 1008.0
20260509030129 53 220 0.0 1.7 0.00 0.21 0.21 94 1007.9
20260509025617 54 220 0.0 1.7 0.00 0.21 0.21 94 1008.0
20260509025112 54 199 0.0 1.7 0.00 0.21 0.21 94 1007.8
20260509024620 54 208 0.0 0.9 0.00 0.21 0.21 94 1007.9
20260509024115 54 190 0.9 0.9 0.00 0.21 0.21 94 1007.8
20260509023624 54 225 0.0 1.7 0.00 0.21 0.21 93 1007.9
20260509023115 54 209 0.9 1.7 0.00 0.21 0.21 93 1007.9
20260509022619 54 215 0.0 1.7 0.00 0.21 0.21 93 1008.0
20260509022112 54 192 0.9 1.7 0.00 0.21 0.21 93 1007.8
20260509021616 54 216 0.0 1.7 0.00 0.21 0.21 93 1007.8
20260509021132 54 177 0.0 1.7 0.00 0.21 0.21 93 1007.8
20260509020648 54 208 0.9 2.6 0.00 0.21 0.21 93 1007.8
20260509020122 54 205 0.9 2.6 0.00 0.21 0.21 93 1007.8
20260509015610 54 225 0.9 3.5 0.00 0.21 0.21 92 1007.8
20260509015126 54 223 1.7 3.5 0.00 0.21 0.21 92 1007.8
20260509014612 54 225 1.7 2.6 0.00 0.21 0.21 92 1007.8
20260509014126 54 192 1.7 5.2 0.00 0.21 0.21 92 1008.0
20260509013613 55 228 2.6 5.2 0.00 0.21 0.21 92 1007.9
20260509013128 55 216 1.7 5.2 0.00 0.21 0.21 91 1007.9
20260509012615 55 230 2.6 5.2 0.00 0.21 0.21 91 1008.0
20260509012109 55 220 2.6 7.0 0.00 0.21 0.21 91 1007.8
20260509011647 55 227 3.5 7.0 0.00 0.21 0.21 91 1007.9
20260509011114 55 212 4.3 7.0 0.00 0.21 0.21 91 1007.7
20260509010630 55 202 4.3 7.0 0.00 0.21 0.21 90 1007.8
20260509010116 55 204 4.3 7.0 0.00 0.21 0.21 90 1007.7
20260509005609 55 232 4.3 7.0 0.00 0.21 0.21 90 1007.7
20260509005124 55 223 4.3 7.0 0.00 0.21 0.21 90 1007.8
20260509004612 55 222 4.3 7.0 0.00 0.21 0.21 89 1007.7
20260509004127 56 221 3.5 7.0 0.00 0.21 0.21 89 1007.8
20260509003631 56 200 5.2 8.7 0.00 0.21 0.21 89 1007.8
20260509003124 56 230 5.2 8.7 0.00 0.21 0.21 88 1007.8
20260509002619 56 208 5.2 8.7 0.00 0.21 0.21 88 1007.8
20260509002127 56 212 4.3 7.8 0.00 0.21 0.21 88 1007.8
20260509001622 56 218 5.2 7.8 0.00 0.21 0.21 88 1007.9
20260509001110 56 223 3.5 9.6 0.00 0.21 0.21 88 1007.8
20260509000625 56 203 5.2 9.6 0.00 0.21 0.21 88 1007.9
20260509000133 56 214 5.2 7.0 0.00 0.21 0.21 88 1007.8
20260508235628 56 218 4.3 7.0 0.00 0.21 0.21 88 1007.7
20260508235121 56 230 6.1 7.0 0.00 0.21 0.21 88 1007.9
20260508234628 56 197 4.3 6.1 0.00 0.21 0.21 88 1008.0
20260508234122 56 213 4.3 7.0 0.00 0.21 0.21 89 1008.0
20260508233610 56 222 5.2 7.0 0.00 0.21 0.21 89 1008.0
20260508233125 57 207 4.3 7.8 0.00 0.21 0.21 89 1008.1
20260508232621 57 195 4.3 7.8 0.00 0.21 0.21 89 1008.1
20260508232109 57 196 4.3 7.0 0.00 0.21 0.21 88 1008.0
20260508231625 57 223 5.2 7.8 0.00 0.21 0.21 88 1008.1
20260508231135 57 212 4.3 7.8 0.00 0.21 0.21 88 1008.1
20260508230629 57 205 4.3 7.8 0.00 0.21 0.21 87 1008.0
20260508230123 57 190 5.2 7.8 0.00 0.21 0.21 88 1008.1
20260508225610 57 226 4.3 7.8 0.00 0.21 0.21 88 1008.1
20260508225124 57 223 4.3 7.8 0.00 0.21 0.21 88 1008.0
20260508224611 57 208 3.5 6.1 0.00 0.21 0.21 88 1008.0
20260508224122 57 222 3.5 7.8 0.00 0.21 0.21 88 1008.0
20260508223637 57 249 5.2 7.8 0.00 0.21 0.21 88 1008.2
20260508223154 57 225 3.5 7.0 0.01 0.21 0.21 89 1008.2
20260508222621 57 224 3.5 8.7 0.01 0.21 0.21 90 1008.2
20260508222135 57 218 4.3 8.7 0.01 0.21 0.21 89 1008.0
20260508221623 57 213 5.2 8.7 0.01 0.21 0.21 89 1008.1
20260508221109 57 228 3.5 7.0 0.01 0.21 0.21 91 1008.2
20260508220624 57 211 4.3 7.8 0.01 0.21 0.21 90 1008.3
20260508220118 57 223 5.2 7.8 0.01 0.21 0.21 90 1008.2
20260508215626 56 216 4.3 7.0 0.01 0.21 0.21 89 1008.2
20260508215121 56 216 4.3 7.0 0.01 0.21 0.21 89 1008.1
20260508214635 56 216 4.3 7.8 0.01 0.21 0.21 89 1008.1
20260508214123 56 235 5.2 9.6 0.01 0.21 0.21 88 1008.0
20260508213610 56 223 6.1 9.6 0.01 0.21 0.21 88 1008.1
20260508213125 56 216 6.1 9.6 0.00 0.20 0.20 88 1008.1
20260508212639 56 218 6.1 9.6 0.00 0.20 0.20 88 1008.2
20260508212116 56 220 7.0 9.6 0.01 0.20 0.20 87 1008.2
20260508211622 57 221 6.1 10.4 0.01 0.20 0.20 88 1008.4
20260508210625 57 226 6.1 8.7 0.03 0.20 0.20 89 1008.5
20260508210119 57 215 5.2 7.8 0.03 0.20 0.20 90 1008.6
20260508205652 56 197 5.2 8.7 0.04 0.20 0.20 90 1008.6
20260508205149 57 209 5.2 8.7 0.04 0.20 0.20 90 1008.6
20260508204615 57 224 5.2 8.7 0.05 0.20 0.20 91 1008.7
20260508204130 56 200 5.2 7.8 0.06 0.20 0.20 90 1008.6
20260508203617 56 218 4.3 7.0 0.06 0.20 0.20 90 1008.7
20260508203113 56 210 5.2 7.0 0.07 0.20 0.20 90 1008.9
20260508202621 56 225 3.5 7.0 0.07 0.20 0.20 90 1009.0
20260508202115 56 237 5.2 7.0 0.07 0.19 0.19 89 1009.0
20260508201652 56 266 4.3 7.8 0.07 0.19 0.19 89 1009.1
20260508201118 56 244 5.2 7.8 0.09 0.18 0.18 90 1009.1
20260508200633 56 263 4.3 6.1 0.09 0.17 0.17 91 1009.2
20260508200118 56 247 1.7 6.1 0.11 0.17 0.17 91 1009.2
20260508195610 56 258 2.6 6.1 0.12 0.16 0.16 91 1009.5
20260508195119 56 228 3.5 5.2 0.13 0.16 0.16 91 1009.6
20260508194612 56 245 2.6 6.1 0.12 0.15 0.15 91 1009.7
20260508194128 56 255 3.5 7.0 0.12 0.14 0.14 90 1009.7
20260508193614 56 263 4.3 7.0 0.12 0.14 0.14 90 1009.7
20260508193131 56 240 5.2 8.7 0.11 0.13 0.13 90 1009.7
20260508192619 56 258 5.2 8.7 0.11 0.13 0.13 90 1010.0
20260508192135 56 273 5.2 9.6 0.11 0.12 0.12 89 1009.9
20260508191648 56 264 5.2 10.4 0.11 0.12 0.12 88 1009.9
20260508191142 57 265 5.2 12.2 0.08 0.09 0.09 88 1010.0
20260508190609 57 285 7.0 12.2 0.06 0.07 0.07 86 1009.9
20260508190124 57 267 6.1 9.6 0.05 0.06 0.06 85 1010.0
20260508185611 58 268 7.0 13.9 0.03 0.04 0.04 82 1010.0
20260508185126 58 276 8.7 15.6 0.02 0.03 0.03 79 1009.9
20260508184620 59 284 9.6 14.8 0.02 0.03 0.03 77 1009.8
20260508184129 60 257 7.0 11.3 0.01 0.02 0.02 78 1009.9
20260508183622 60 278 7.0 11.3 0.01 0.02 0.02 78 1009.9
20260508183116 60 252 7.8 12.2 0.01 0.02 0.02 76 1009.9
20260508182630 60 268 7.8 13.9 0.01 0.02 0.02 74 1009.9
20260508182118 61 264 8.7 15.6 0.00 0.01 0.01 71 1009.9
20260508181613 63 270 12.2 15.6 0.00 0.01 0.01 65 1009.7
20260508181127 63 240 7.0 12.2 0.00 0.01 0.01 66 1009.7
20260508180615 63 221 7.8 12.2 0.00 0.01 0.01 64 1009.7
20260508180130 64 244 8.7 12.2 0.00 0.01 0.01 64 1009.8
20260508175619 64 221 7.0 11.3 0.00 0.01 0.01 66 1009.9
20260508175112 63 241 7.0 9.6 0.00 0.01 0.01 64 1009.9
20260508174627 63 249 6.1 10.4 0.00 0.01 0.01 65 1010.0
20260508174114 62 228 5.2 10.4 0.00 0.01 0.01 66 1010.1
20260508173630 62 231 6.1 7.8 0.00 0.01 0.01 64 1010.2
20260508173117 62 228 6.1 7.8 0.00 0.01 0.01 64 1010.1
20260508172627 62 226 4.3 10.4 0.00 0.01 0.01 66 1010.1
20260508172137 62 235 4.3 10.4 0.00 0.01 0.01 67 1010.3
20260508171610 61 212 4.3 7.8 0.00 0.01 0.01 66 1010.3
20260508171124 61 213 6.1 9.6 0.00 0.01 0.01 65 1010.5
20260508170612 61 203 6.1 9.6 0.00 0.01 0.01 64 1010.5
20260508170127 61 218 4.3 8.7 0.00 0.01 0.01 65 1010.6
20260508165615 61 208 7.0 10.4 0.00 0.01 0.01 65 1010.6
20260508165129 61 226 5.2 10.4 0.00 0.01 0.01 64 1010.8
20260508164615 61 241 7.0 9.6 0.00 0.01 0.01 65 1010.8
20260508164109 60 261 7.0 11.3 0.00 0.01 0.01 64 1010.9
20260508163615 60 244 5.2 11.3 0.00 0.01 0.01 64 1011.0
20260508163130 60 244 5.2 9.6 0.00 0.01 0.01 66 1011.0
20260508162626 60 225 5.2 8.7 0.00 0.01 0.01 66 1011.1
20260508162111 59 228 4.3 8.7 0.00 0.01 0.01 67 1011.2
20260508161626 59 229 6.1 8.7 0.00 0.01 0.01 66 1011.4
20260508161114 59 220 5.2 8.7 0.00 0.01 0.01 66 1011.3
20260508160629 59 232 6.1 8.7 0.00 0.01 0.01 66 1011.3
20260508160116 59 251 6.1 11.3 0.00 0.01 0.01 67 1011.3
20260508155631 59 232 6.1 11.3 0.00 0.01 0.01 68 1011.3
20260508155119 60 209 7.0 10.4 0.00 0.01 0.01 65 1011.4
20260508154635 60 261 5.2 8.7 0.00 0.01 0.01 66 1011.4
20260508154130 59 201 7.0 8.7 0.00 0.01 0.01 66 1011.5
20260508153616 59 213 5.2 7.8 0.00 0.01 0.01 67 1011.4
20260508153111 59 202 5.2 8.7 0.00 0.01 0.01 67 1011.3
20260508152618 59 216 6.1 8.7 0.00 0.01 0.01 68 1011.5
20260508152112 59 202 5.2 9.6 0.00 0.01 0.01 69 1011.4
20260508151616 58 244 7.0 11.3 0.00 0.01 0.01 67 1011.5
20260508151128 58 207 7.0 11.3 0.00 0.01 0.01 69 1011.7
20260508150616 58 211 6.1 8.7 0.00 0.01 0.01 70 1011.6
20260508150110 57 248 5.2 8.7 0.00 0.01 0.01 70 1011.6
20260508145620 56 219 6.1 8.7 0.00 0.01 0.01 70 1011.7
20260508145114 56 253 2.6 6.1 0.00 0.01 0.01 74 1011.8
20260508144630 55 228 4.3 6.1 0.00 0.01 0.01 71 1011.9
20260508144117 55 233 3.5 6.1 0.00 0.01 0.01 73 1011.9
20260508143632 54 255 2.6 5.2 0.00 0.01 0.01 74 1012.0
20260508143126 54 258 3.5 5.2 0.00 0.01 0.01 76 1012.0
20260508142614 54 272 2.6 5.2 0.00 0.01 0.01 78 1012.2
20260508142130 54 258 3.5 6.1 0.00 0.01 0.01 77 1012.2
20260508141617 53 250 3.5 6.1 0.00 0.01 0.01 79 1012.1
20260508141132 53 242 3.5 5.2 0.00 0.01 0.01 78 1012.0
20260508140621 53 218 4.3 5.2 0.00 0.01 0.01 77 1012.2
20260508140136 53 239 2.6 3.5 0.00 0.01 0.01 78 1012.2
20260508135610 53 245 1.7 3.5 0.00 0.01 0.01 79 1012.3
20260508135119 52 242 1.7 4.3 0.00 0.01 0.01 79 1012.4
20260508134614 52 240 2.6 4.3 0.00 0.01 0.01 79 1012.4
20260508134129 52 250 1.7 5.2 0.00 0.01 0.01 79 1012.4
20260508133616 53 270 3.5 6.1 0.00 0.01 0.01 77 1012.5
20260508133132 53 270 4.3 7.8 0.00 0.01 0.01 76 1012.4
20260508132619 53 256 5.2 7.8 0.00 0.01 0.01 76 1012.4
20260508132129 53 239 3.5 7.0 0.00 0.01 0.01 77 1012.2
20260508131617 53 230 4.3 7.0 0.00 0.01 0.01 77 1012.1
20260508131132 53 218 4.3 7.0 0.00 0.01 0.01 78 1012.0
20260508130641 52 205 3.5 6.1 0.00 0.01 0.01 78 1011.9
20260508130114 52 214 2.6 6.1 0.00 0.01 0.01 78 1011.9
20260508125651 52 214 4.3 6.1 0.00 0.01 0.01 79 1011.9
20260508125115 51 214 3.5 5.2 0.00 0.01 0.01 82 1012.1
20260508124610 51 215 3.5 5.2 0.00 0.01 0.01 82 1012.0
20260508124124 51 222 1.7 3.5 0.00 0.01 0.01 83 1012.2
20260508123612 50 206 2.6 3.5 0.00 0.01 0.01 83 1012.2
20260508123126 50 211 1.7 3.5 0.00 0.01 0.01 83 1012.1
20260508122612 50 221 1.7 3.5 0.00 0.01 0.01 84 1012.2
20260508122127 50 224 1.7 3.5 0.00 0.01 0.01 84 1012.1
20260508121614 50 227 1.7 3.5 0.01 0.01 0.01 84 1012.2
20260508121110 50 230 2.6 4.3 0.01 0.01 0.01 84 1012.0
20260508120619 50 211 2.6 4.3 0.01 0.01 0.01 84 1012.1
20260508120135 50 222 2.6 5.2 0.01 0.01 0.01 84 1012.1
20260508115629 50 210 3.5 5.2 0.01 0.01 0.01 84 1012.1
20260508115117 50 228 3.5 6.1 0.01 0.01 0.01 84 1012.1
20260508114612 49 254 3.5 7.0 0.01 0.01 0.01 84 1012.0
20260508114121 49 232 3.5 9.6 0.01 0.01 0.01 84 1011.9
20260508113616 49 247 6.1 9.6 0.01 0.01 0.01 84 1011.8
20260508113124 50 211 6.1 11.3 0.01 0.01 0.01 84 1011.8
20260508112619 50 230 7.0 11.3 0.01 0.01 0.01 83 1011.6
20260508112131 50 231 6.1 9.6 0.01 0.01 0.01 83 1011.4
20260508111618 50 261 6.1 9.6 0.00 0.00 0.00 83 1011.7
20260508111134 50 211 6.1 9.6 0.00 0.00 0.00 83 1011.9
20260508110621 50 245 7.0 9.6 0.00 0.00 0.00 82 1011.8
20260508110137 50 254 6.1 10.4 0.00 0.00 0.00 82 1011.8
20260508105622 50 279 7.0 10.4 0.00 0.00 0.00 81 1011.7
20260508105138 50 249 7.0 10.4 0.00 0.00 0.00 80 1011.5
20260508104632 51 238 7.8 10.4 0.00 0.00 0.00 78 1011.3
20260508104120 51 228 5.2 9.6 0.00 0.00 0.00 76 1011.7
20260508103636 51 249 7.0 10.4 0.00 0.00 0.00 74 1011.5
20260508103122 51 230 6.1 12.2 0.00 0.00 0.00 73 1011.6
20260508102617 52 223 7.0 12.2 0.00 0.00 0.00 73 1011.7
20260508102155 51 234 7.0 10.4 0.00 0.00 0.00 74 1011.6
20260508101643 51 232 6.1 9.6 0.00 0.00 0.00 75 1011.5
20260508101139 51 233 6.1 10.4 0.00 0.00 0.00 75 1011.7
20260508100633 51 242 7.0 10.4 0.00 0.00 0.00 75 1011.5
20260508100120 51 235 6.1 10.4 0.00 0.00 0.00 76 1011.4
20260508095638 51 249 6.1 11.3 0.00 0.00 0.00 75 1011.4
20260508095132 51 225 6.1 11.3 0.00 0.00 0.00 75 1011.3
20260508094618 52 232 7.0 14.8 0.00 0.00 0.00 74 1011.4
20260508094113 52 240 9.6 14.8 0.00 0.00 0.00 73 1011.4
20260508093616 52 216 6.1 13.0 0.00 0.00 0.00 74 1011.6
20260508093111 52 250 7.8 13.9 0.00 0.00 0.00 73 1011.6
20260508092619 52 245 7.8 13.9 0.00 0.00 0.00 73 1011.7
20260508092114 52 226 7.8 13.9 0.00 0.00 0.00 73 1011.8
20260508091623 52 259 8.7 15.6 0.00 0.00 0.00 72 1011.8
20260508091116 52 238 10.4 20.0 0.00 0.00 0.00 71 1011.9
20260508090625 52 226 9.6 16.5 0.00 0.00 0.00 71 1011.9
20260508090119 52 246 7.0 11.3 0.00 0.00 0.00 71 1012.2
20260508085634 52 256 7.0 11.3 0.00 0.00 0.00 72 1011.9
20260508085120 52 257 7.8 11.3 0.00 0.00 0.00 72 1011.8
20260508084636 52 242 7.0 11.3 0.00 0.00 0.00 72 1011.7
20260508084153 52 236 6.1 9.6 0.00 0.00 0.00 73 1011.6
20260508083619 51 232 6.1 9.6 0.00 0.00 0.00 75 1011.5
20260508083136 51 237 6.1 7.8 0.00 0.00 0.00 76 1011.5
20260508082623 51 256 4.3 9.6 0.00 0.00 0.00 77 1011.5
20260508082119 51 247 6.1 9.6 0.00 0.00 0.00 76 1011.6
20260508081627 51 225 4.3 8.7 0.00 0.00 0.00 77 1011.5
20260508081121 51 237 5.2 10.4 0.00 0.00 0.00 77 1011.4
20260508080609 51 241 6.1 9.6 0.00 0.00 0.00 76 1011.3
20260508080124 51 246 5.2 8.7 0.00 0.00 0.00 76 1011.4
20260508075634 51 235 6.1 10.4 0.00 0.00 0.00 75 1011.4
20260508075122 51 232 6.1 12.2 0.00 0.00 0.00 74 1011.6
20260508074617 51 235 8.7 13.9 0.00 0.00 0.00 74 1011.6
20260508074127 51 237 7.0 13.9 0.00 0.00 0.00 73 1011.6
20260508073620 51 233 7.8 13.9 0.00 0.00 0.00 73 1011.8
20260508073125 51 244 7.8 13.9 0.00 0.00 0.00 73 1011.9
20260508072616 51 236 7.8 12.2 0.00 0.00 0.00 73 1011.7
20260508072124 51 223 6.1 11.3 0.00 0.00 0.00 74 1011.9
20260508071640 51 237 7.8 11.3 0.00 0.00 0.00 74 1011.7
20260508071114 51 233 7.0 11.3 0.00 0.00 0.00 74 1011.7
20260508070620 51 230 7.8 11.3 0.00 0.00 0.00 74 1011.8
20260508070135 51 229 7.0 10.4 0.00 0.00 0.00 74 1011.9
20260508065630 51 240 7.8 10.4 0.00 0.00 0.00 75 1011.9
20260508065117 50 229 7.0 11.3 0.00 0.00 0.00 75 1011.9
20260508064612 50 241 5.2 11.3 0.00 0.00 0.00 76 1012.0
20260508064149 50 239 6.1 10.4 0.00 0.00 0.00 76 1011.9
20260508063617 50 248 6.1 8.7 0.00 0.00 0.00 76 1012.0
20260508063127 50 250 5.2 8.7 0.00 0.00 0.00 77 1011.9
20260508062642 49 224 5.2 8.7 0.00 0.00 0.00 77 1012.0
20260508062130 49 224 5.2 7.8 0.00 0.00 0.00 78 1011.9
20260508061623 48 229 3.5 6.1 0.00 0.00 0.00 80 1011.9
20260508061109 48 218 2.6 6.1 0.00 0.00 0.00 81 1012.0
20260508060646 48 224 1.7 4.3 0.00 0.00 0.00 82 1012.0
20260508060113 47 195 1.7 3.5 0.00 0.00 0.00 82 1012.1
20260508055624 47 223 1.7 3.5 0.00 0.00 0.00 82 1012.1
20260508055118 47 214 1.7 2.6 0.00 0.00 0.00 83 1012.1
20260508054627 47 211 1.7 3.5 0.00 0.00 0.00 83 1012.2